Powrót do katalogu

KOREASAT 116

AktywnyŁącznośćGEO
NORAD 45920·PAYLOAD·🇰🇷 South Korea

Wystrzelony Jul 20, 2020 z Cape Canaveral Space Force Station

Loading…

TLE

ŚwieżeSource: Space-Track

Epoka: Sep 14, 2026, 14:21 UTC

1 45920U 20048A   26257.59815444 -.00000370  00000-0  00000-0 0  9997
2 45920   0.0132 239.4927 0000977 281.1532 164.4702  1.00274264 22531

Śledź KOREASAT 116 w czasie rzeczywistym z AllMySat

Download on the App Store